[[{"header":{"parameterUnit":"m.s-1","parameterCategory":1,"la1":30.2991,"la2":30.254,"lo1":-89.0895,"lo2":-89.0444,"dy":0.0017,"dx":0.0017,"nx":28,"ny":28,"refTime":"2025-09-06T09:00:00:Z","depth":0,"parameterNumber":2,"parameterNumberName":"U-component_of_WINDS"},"data":[0,0,0,0,0,0,0,0,0,0,0,0,0,0,0,0,0,0,0,0,0,0,0,0,0,0,0,0,0,0,0,0,0,0,0,0,0,0,0,0,0,0,0,0,0,0,0,0,0,0,0,0,0,0,0,0,0,0,-0.1576,-0.1575,0,-0.1477,-0.1475,-0.1474,-0.1388,-0.1387,-0.1386,-0.1385,-0.1283,-0.1281,-0.1279,0,0,0,0,0,0,0,0,0,0,0,0,0,-0.1692,-0.169,-0.1576,-0.1575,-0.1574,-0.1477,-0.1475,-0.1474,-0.1389,-0.1387,-0.1386,-0.1385,-0.1284,-0.1281,-0.1279,0,0,0,0,0,0,0,0,0,0,0,0,0,-0.1622,-0.1689,-0.1577,-0.152,-0.1513,-0.1477,-0.1475,-0.1474,-0.1389,-0.1387,-0.1386,-0.1385,-0.1284,-0.1282,-0.1279,-0.1291,0,0,-0.127,-0.1269,0,0,0,0,0,0,0,0,-0.1626,-0.1618,-0.1529,-0.1523,-0.1517,-0.1443,-0.1478,-0.1412,-0.1389,-0.1436,-0.1385,-0.1384,-0.1337,-0.133,-0.1315,-0.1286,-0.1282,-0.127,-0.1269,-0.1267,-0.1267,0,0,0,0,0,0,0,-0.1631,-0.1621,-0.1537,-0.1528,-0.152,-0.1498,-0.1487,-0.1465,-0.1396,-0.1432,-0.1425,-0.1415,-0.1334,-0.1318,-0.1312,-0.128,-0.127,-0.1268,-0.1266,-0.1265,-0.1256,-0.1257,0,0,0,0,0,0,-0.1644,-0.1626,-0.154,-0.1534,-0.1569,-0.1498,-0.1485,-0.1468,-0.1396,-0.1384,-0.1416,-0.1411,-0.1323,-0.1315,-0.1308,-0.1317,-0.1267,-0.1265,-0.1263,-0.1254,-0.1256,-0.1257,0,0,0,0,0,0,-0.1647,-0.1638,-0.1544,-0.1578,-0.1565,-0.1497,-0.1479,-0.1467,-0.1451,-0.1384,-0.1371,-0.1413,-0.1321,-0.1312,-0.1296,-0.1312,-0.1264,-0.1261,-0.1253,-0.1255,-0.1257,-0.1336,0,0,0,0,0,0,-0.1651,-0.1639,-0.1644,-0.1579,-0.1563,-0.1534,-0.148,-0.1466,-0.1446,-0.1439,-0.1377,-0.1366,-0.132,-0.13,-0.1293,-0.1307,-0.1259,-0.1251,-0.1253,-0.1256,-0.1331,-0.134,-0.1348,0,0,0,0,0,-0.1655,-0.167,-0.1644,-0.1634,-0.1567,-0.1535,-0.1526,-0.1473,-0.1448,-0.1452,-0.1409,-0.1368,-0.1311,-0.1299,-0.129,-0.1304,-0.1249,-0.1253,-0.1256,-0.1328,-0.1339,-0.1348,0,0,0,0,0,0,-0.1738,-0.166,-0.1631,-0.1625,-0.1588,-0.1521,-0.1524,-0.1486,-0.1455,-0.1449,-0.1384,-0.1371,-0.1362,-0.1331,-0.1319,-0.1312,-0.1275,-0.1276,-0.1333,-0.1342,-0.1351,-0.1359,-0.1257,0,0,0,0,0,-0.1756,-0.1737,-0.1669,-0.1671,-0.1653,-0.1592,-0.1576,-0.1538,-0.1497,-0.1481,-0.1436,-0.1397,-0.1371,-0.1355,-0.1326,-0.1326,-0.1311,-0.1331,-0.134,-0.1347,-0.1349,-0.1346,-0.1354,-0.1268,-0.1268,-0.1268,0,0,-0.1792,-0.1747,-0.1739,-0.1686,-0.1653,-0.1634,-0.1579,-0.1562,-0.1548,-0.1478,-0.146,-0.1426,-0.1378,-0.137,-0.1365,-0.1344,-0.1369,-0.1351,-0.1357,-0.1355,-0.135,-0.1359,-0.1366,-0.127,-0.1269,-0.1269,0,0,-0.1848,-0.1812,-0.1809,-0.1777,-0.1727,-0.1686,-0.1685,-0.1624,-0.1599,-0.158,-0.1527,-0.1508,-0.1464,-0.1432,-0.141,-0.1453,-0.1415,-0.1446,-0.149,-0.1488,-0.1495,-0.15,-0.1516,-0.1522,-0.1448,-0.1448,-0.1449,0,-0.1899,-0.187,-0.1812,-0.1799,-0.1777,-0.1712,-0.1708,-0.1679,-0.1623,-0.1609,-0.1587,-0.153,-0.1493,-0.1476,-0.1487,-0.1471,-0.1468,-0.1453,-0.1498,-0.1503,-0.1508,-0.1522,-0.1528,-0.1453,-0.1452,-0.1452,-0.1451,0,-0.1935,-0.1916,-0.1919,-0.1866,-0.1845,-0.1836,-0.1777,-0.1762,-0.1725,-0.1687,-0.1668,-0.1621,-0.1583,-0.1575,-0.154,-0.1554,-0.1543,-0.151,-0.1472,-0.1521,-0.1534,-0.1539,-0.1459,-0.1457,-0.1456,-0.1455,0,0,-0.2043,-0.1957,-0.196,-0.1935,-0.1874,-0.1858,-0.1846,-0.1808,-0.1796,-0.1759,-0.1747,-0.171,-0.168,-0.1655,-0.1615,-0.1613,-0.1651,-0.1581,-0.1578,-0.1596,-0.1663,-0.1689,-0.1696,-0.1624,-0.1625,-0.1625,-0.1667,0,-0.209,-0.2065,-0.2013,-0.2004,-0.1985,-0.1923,-0.1912,-0.1874,-0.1837,-0.1815,-0.1774,-0.1749,-0.1711,-0.1695,-0.1691,-0.1647,-0.1663,-0.1643,-0.1613,-0.1612,-0.1628,-0.1702,-0.1729,-0.1771,-0.1672,-0.1672,-0.1673,0,-0.2142,-0.2109,-0.2099,-0.2039,-0.2029,-0.2021,-0.1981,-0.1961,-0.1916,-0.1889,-0.1861,-0.1817,-0.18,-0.1764,-0.174,-0.1728,-0.1712,-0.1689,-0.1689,-0.1685,-0.1647,-0.1701,-0.1783,-0.179,-0.168,-0.1679,-0.1679,0,-0.2222,-0.2174,-0.2162,-0.2143,-0.2072,-0.2068,-0.2038,-0.1992,-0.1972,-0.1937,-0.1924,-0.1888,-0.1868,-0.1841,-0.1788,-0.1767,-0.177,-0.173,-0.1747,-0.1749,-0.1752,-0.1753,-0.1834,-0.174,-0.174,-0.174,-0.174,0,-0.2281,-0.2277,-0.2197,-0.219,-0.2184,-0.2123,-0.2118,-0.2083,-0.2042,-0.2026,-0.1969,-0.1956,-0.1886,-0.1864,-0.1822,-0.1809,-0.18,-0.1778,-0.1767,-0.1784,-0.1787,-0.1773,-0.1769,-0.1742,-0.1741,-0.1741,-0.1741,0,-0.2369,-0.2316,-0.2298,-0.2233,-0.2217,-0.2215,-0.2159,-0.2149,-0.2108,-0.2089,-0.2081,-0.2017,-0.1989,-0.1933,-0.1888,-0.186,-0.1856,-0.1837,-0.1872,-0.1865,-0.1886,-0.1886,-0.1962,-0.1969,-0.1872,-0.1873,-0.1873,0,-0.2411,-0.2407,-0.2341,-0.2327,-0.23,-0.2277,-0.2257,-0.2196,-0.2177,-0.2125,-0.2121,-0.2088,-0.2058,-0.2015,-0.1965,-0.193,-0.191,-0.1939,-0.1904,-0.1921,-0.1911,-0.1912,-0.1911,-0.1947,-0.1948,-0.195,-0.195,0,-0.2491,-0.2464,-0.2437,-0.2401,-0.2378,-0.2347,-0.2312,-0.2303,-0.2234,-0.2216,-0.2186,-0.2163,-0.2117,-0.2085,-0.2043,-0.2012,-0.197,-0.1962,-0.1964,-0.1981,-0.2002,-0.1992,-0.1894,-0.196,-0.1959,-0.1959,-0.1958,-0.1958,-0.2558,-0.2551,-0.2504,-0.2475,-0.2443,-0.2412,-0.2399,-0.2357,-0.2331,-0.2289,-0.2255,-0.2228,-0.2181,-0.2121,-0.2092,-0.207,-0.2049,-0.2053,-0.2054,-0.2056,-0.2063,-0.2005,-0.2062,-0.2061,-0.2061,-0.2061,-0.206,0,-0.2635,-0.2601,-0.2576,-0.2529,-0.2507,-0.2469,-0.2428,-0.2412,-0.2389,-0.235,-0.2321,-0.2287,-0.2255,-0.2201,-0.2165,-0.2157,-0.2137,-0.215,-0.215,-0.2144,-0.2083,-0.2085,-0.2167,-0.2167,-0.2167,-0.2167,-0.2167,-0.2167,-0.2673,-0.266,-0.2627,-0.2597,-0.2563,-0.2537,-0.2517,-0.2487,-0.2455,-0.2419,-0.2393,-0.2358,-0.2313,-0.2272,-0.2241,-0.2226,-0.2216,-0.2235,-0.2214,-0.2158,-0.2148,-0.2139,-0.214,-0.2233,-0.2233,-0.2277,-0.2278,-0.2278]},{"header":{"parameterUnit":"m.s-1","parameterCategory":1,"la1":30.2991,"la2":30.254,"lo1":-89.0895,"lo2":-89.0444,"dy":0.0017,"dx":0.0017,"nx":28,"ny":28,"refTime":"2025-09-06T09:00:00:Z","depth":0,"parameterNumber":3,"parameterNumberName":"V-component_of_WINDS"},"data":[0,0,0,0,0,0,0,0,0,0,0,0,0,0,0,0,0,0,0,0,0,0,0,0,0,0,0,0,0,0,0,0,0,0,0,0,0,0,0,0,0,0,0,0,0,0,0,0,0,0,0,0,0,0,0,0,0,0,-5.8069,-5.807,0,-5.8129,-5.813,-5.813,-5.8075,-5.8072,-5.807,-5.8068,-5.8122,-5.8125,-5.8129,0,0,0,0,0,0,0,0,0,0,0,0,0,-5.7901,-5.7904,-5.8069,-5.807,-5.8071,-5.8129,-5.813,-5.813,-5.8075,-5.8072,-5.807,-5.8067,-5.8121,-5.8125,-5.8129,0,0,0,0,0,0,0,0,0,0,0,0,0,-5.7968,-5.7905,-5.8069,-5.805,-5.8049,-5.8129,-5.813,-5.8131,-5.8076,-5.8072,-5.8069,-5.8066,-5.812,-5.8125,-5.813,-5.8228,0,0,-5.8146,-5.8148,0,0,0,0,0,0,0,0,-5.7965,-5.7975,-5.8052,-5.8052,-5.8051,-5.8091,-5.809,-5.8163,-5.8076,-5.8065,-5.8068,-5.8064,-5.8114,-5.8119,-5.8138,-5.8231,-5.8233,-5.8146,-5.8149,-5.8152,-5.8153,0,0,0,0,0,0,0,-5.796,-5.7972,-5.8093,-5.8054,-5.8053,-5.8037,-5.8043,-5.8103,-5.8107,-5.8066,-5.8062,-5.807,-5.8113,-5.8133,-5.8138,-5.8234,-5.8146,-5.8151,-5.8154,-5.8156,-5.841,-5.8413,0,0,0,0,0,0,-5.7958,-5.7968,-5.8091,-5.8094,-5.7999,-5.8042,-5.8049,-5.8081,-5.8107,-5.8107,-5.8073,-5.8068,-5.8125,-5.8132,-5.814,-5.8256,-5.8152,-5.8157,-5.816,-5.8406,-5.841,-5.8414,0,0,0,0,0,0,-5.7955,-5.797,-5.8088,-5.803,-5.8044,-5.8049,-5.8086,-5.8084,-5.8104,-5.8112,-5.8112,-5.8093,-5.8123,-5.8133,-5.8207,-5.8257,-5.8159,-5.8164,-5.8402,-5.8407,-5.8412,-5.849,0,0,0,0,0,0,-5.795,-5.7969,-5.8008,-5.8032,-5.8048,-5.8157,-5.8089,-5.8088,-5.8114,-5.8108,-5.8131,-5.8131,-5.8121,-5.82,-5.8212,-5.8263,-5.8168,-5.8397,-5.8404,-5.8411,-5.8483,-5.8497,-5.851,0,0,0,0,0,-5.7945,-5.8026,-5.801,-5.8025,-5.8097,-5.816,-5.8168,-5.8157,-5.8119,-5.8157,-5.8162,-5.8131,-5.825,-5.8208,-5.8221,-5.8274,-5.8394,-5.8402,-5.841,-5.8477,-5.8494,-5.8509,0,0,0,0,0,0,-5.8005,-5.8029,-5.8012,-5.8104,-5.8131,-5.815,-5.8198,-5.8176,-5.8212,-5.8204,-5.8187,-5.8192,-5.8271,-5.828,-5.8232,-5.837,-5.8316,-5.8327,-5.8361,-5.8378,-5.8391,-5.8386,-5.8172,0,0,0,0,0,-5.803,-5.8081,-5.8098,-5.8178,-5.8192,-5.8193,-5.822,-5.8209,-5.8235,-5.8245,-5.8255,-5.828,-5.8323,-5.8351,-5.8391,-5.8484,-5.8487,-5.8527,-5.8541,-5.8552,-5.8561,-5.8609,-5.8627,-5.8441,-5.8441,-5.8441,0,0,-5.808,-5.81,-5.8132,-5.819,-5.821,-5.8261,-5.8203,-5.8259,-5.8296,-5.8253,-5.8324,-5.8333,-5.8358,-5.8443,-5.848,-5.8453,-5.8613,-5.8562,-5.8571,-5.8574,-5.862,-5.8637,-5.8653,-5.8446,-5.8445,-5.8445,0,0,-5.8198,-5.8219,-5.8287,-5.8308,-5.8339,-5.834,-5.8356,-5.838,-5.8384,-5.8456,-5.8425,-5.8467,-5.8542,-5.8561,-5.8581,-5.8707,-5.8679,-5.8721,-5.879,-5.8837,-5.8852,-5.8865,-5.8908,-5.8924,-5.873,-5.8731,-5.8731,0,-5.8256,-5.8334,-5.8324,-5.8384,-5.8409,-5.8375,-5.8443,-5.8463,-5.8504,-5.8522,-5.8491,-5.8584,-5.8599,-5.8687,-5.8718,-5.8736,-5.8752,-5.8717,-5.8851,-5.8864,-5.8876,-5.8917,-5.8933,-5.8735,-5.8735,-5.8734,-5.8734,0,-5.8403,-5.8458,-5.8508,-5.8552,-5.8584,-5.8647,-5.8644,-5.8677,-5.8664,-5.8666,-5.8739,-5.8756,-5.8799,-5.8819,-5.8806,-5.8905,-5.8886,-5.8854,-5.8798,-5.8898,-5.8936,-5.8952,-5.8742,-5.874,-5.8739,-5.8738,0,0,-5.8558,-5.8598,-5.8616,-5.8635,-5.8668,-5.8708,-5.8769,-5.8813,-5.8841,-5.8871,-5.892,-5.8984,-5.8955,-5.8977,-5.8966,-5.9008,-5.9105,-5.897,-5.897,-5.8993,-5.9213,-5.9236,-5.9254,-5.9088,-5.9091,-5.9093,-5.921,0,-5.8676,-5.8785,-5.8778,-5.8879,-5.8928,-5.8897,-5.895,-5.8974,-5.8978,-5.9019,-5.9022,-5.9068,-5.9027,-5.904,-5.908,-5.9085,-5.9149,-5.9077,-5.913,-5.9133,-5.9123,-5.9274,-5.9299,-5.9408,-5.9225,-5.9228,-5.923,0,-5.8827,-5.8865,-5.8972,-5.8997,-5.9017,-5.9065,-5.9105,-5.9145,-5.9171,-5.9171,-5.9197,-5.9179,-5.9238,-5.9183,-5.9263,-5.9214,-5.9236,-5.9241,-5.9245,-5.9248,-5.9186,-5.9279,-5.9443,-5.9459,-5.9253,-5.9251,-5.925,0,-5.8928,-5.9006,-5.908,-5.9097,-5.9129,-5.9163,-5.9177,-5.92,-5.9227,-5.9261,-5.9278,-5.9317,-5.9339,-5.9369,-5.9361,-5.9322,-5.9442,-5.9386,-5.9441,-5.9442,-5.9466,-5.9464,-5.9634,-5.9484,-5.9484,-5.9483,-5.9483,0,-5.9059,-5.9125,-5.9125,-5.917,-5.9243,-5.9234,-5.9305,-5.9314,-5.9336,-5.938,-5.9356,-5.9397,-5.9386,-5.9426,-5.942,-5.9486,-5.9497,-5.9496,-5.9494,-5.9498,-5.9497,-5.951,-5.9501,-5.9488,-5.9487,-5.9486,-5.9485,0,-5.9183,-5.9186,-5.9264,-5.9289,-5.9296,-5.9348,-5.9368,-5.9409,-5.9412,-5.9469,-5.9481,-5.9485,-5.9532,-5.9528,-5.958,-5.9576,-5.9657,-5.9646,-5.9649,-5.9646,-5.9701,-5.9695,-5.9882,-5.9905,-5.9743,-5.9744,-5.9746,0,-5.9265,-5.9316,-5.9346,-5.9376,-5.9393,-5.944,-5.9468,-5.9461,-5.9491,-5.9525,-5.9561,-5.9607,-5.9642,-5.9718,-5.9724,-5.9763,-5.9752,-5.9815,-5.9757,-5.9759,-5.975,-5.9747,-5.9751,-5.9825,-5.9827,-5.9829,-5.983,0,-5.941,-5.941,-5.9453,-5.9496,-5.9531,-5.9564,-5.9594,-5.9619,-5.9615,-5.9649,-5.9698,-5.9726,-5.978,-5.9824,-5.9862,-5.9873,-5.985,-5.9848,-5.9863,-5.9866,-5.9865,-5.9864,-5.9678,-5.9843,-5.9842,-5.9841,-5.984,-5.984,-5.9514,-5.9558,-5.9586,-5.9634,-5.9657,-5.9686,-5.9726,-5.9735,-5.9777,-5.9822,-5.9815,-5.9869,-5.9893,-5.9942,-5.9957,-5.9998,-5.9975,-5.9996,-6.0001,-6.0006,-6.0012,-5.9861,-6.0005,-6.0004,-6.0004,-6.0004,-6.0003,0,-5.9656,-5.9674,-5.9719,-5.9763,-5.9801,-5.9779,-5.9812,-5.9843,-5.9893,-5.9918,-5.9955,-6.001,-6.0053,-6.0063,-6.0104,-6.0134,-6.0125,-6.0145,-6.0141,-6.0144,-6.0031,-6.0014,-6.0152,-6.0152,-6.0152,-6.0152,-6.0152,-6.0152,-5.9735,-5.9806,-5.9809,-5.9891,-5.9907,-5.9962,-5.9983,-6.0008,-6.0029,-6.0093,-6.013,-6.0137,-6.0156,-6.0198,-6.0236,-6.0237,-6.0252,-6.0277,-6.0274,-6.0167,-6.0152,-6.0138,-6.0122,-6.0281,-6.0281,-6.0383,-6.0384,-6.0385]}]]